10-07-2022, 00:00:08,    352,    0.0,   13.8,   0.00,   0.00, 1025.1,   62.7, -999.0
10-07-2022, 00:00:18,    352,    0.0,   13.7,   0.00,   0.00, 1025.1,   62.5, -999.0
10-07-2022, 00:00:28,    352,    0.0,   13.9,   0.00,   0.00, 1025.1,   62.5, -999.0
10-07-2022, 00:00:38,    351,    0.0,   13.8,   0.00,   0.00, 1025.1,   62.4, -999.0
10-07-2022, 00:00:48,    352,    0.0,   13.8,   0.00,   0.00, 1025.1,   62.5, -999.0
10-07-2022, 00:00:58,    352,    0.0,   13.7,   0.00,   0.00, 1025.1,   62.5, -999.0
10-07-2022, 00:01:08,    352,    0.0,   13.8,   0.00,   0.00, 1025.1,   62.5, -999.0
10-07-2022, 00:01:18,    352,    0.0,   13.7,   0.00,   0.00, 1025.1,   62.5, -999.0
10-07-2022, 00:01:28,    352,    0.0,   13.8,   0.00,   0.00, 1025.1,   62.6, -999.0
10-07-2022, 00:01:38,    352,    0.0,   13.7,   0.00,   0.00, 1025.1,   62.6, -999.0
10-07-2022, 00:01:47,    352,    0.0,   13.7,   0.00,   0.00, 1025.1,   62.5, -999.0
10-07-2022, 00:01:57,    352,    0.0,   13.7,   0.00,   0.00, 1025.1,   62.6, -999.0
10-07-2022, 00:02:08,    352,    0.0,   13.7,   0.00,   0.00, 1025.1,   62.7, -999.0
10-07-2022, 00:02:17,    351,    0.0,   13.6,   0.00,   0.00, 1025.1,   62.7, -999.0
10-07-2022, 00:02:27,    352,    0.0,   13.6,   0.00,   0.00, 1025.1,   62.9, -999.0
10-07-2022, 00:02:37,    352,    0.0,   13.7,   0.00,   0.00, 1025.1,   62.8, -999.0
10-07-2022, 00:02:47,    352,    0.0,   13.7,   0.00,   0.00, 1025.1,   62.9, -999.0
10-07-2022, 00:02:57,    352,    0.0,   13.7,   0.00,   0.00, 1025.1,   62.8, -999.0
10-07-2022, 00:03:07,    352,    0.0,   13.7,   0.00,   0.00, 1025.1,   62.9, -999.0
10-07-2022, 00:03:17,    352,    0.0,   13.7,   0.00,   0.00, 1025.1,   62.9, -999.0
10-07-2022, 00:03:27,    352,    0.0,   13.6,   0.00,   0.00, 1025.1,   63.1, -999.0
10-07-2022, 00:03:37,    352,    0.0,   13.7,   0.00,   0.00, 1025.1,   63.0, -999.0
10-07-2022, 00:03:47,    352,    0.0,   13.6,   0.00,   0.00, 1025.2,   63.0, -999.0
10-07-2022, 00:03:57,    352,    0.0,   13.5,   0.00,   0.00, 1025.1,   63.0, -999.0
10-07-2022, 00:04:07,    352,    0.0,   13.7,   0.00,   0.00, 1025.2,   62.9, -999.0
10-07-2022, 00:04:17,    352,    0.0,   13.7,   0.00,   0.00, 1025.1,   63.0, -999.0
10-07-2022, 00:04:26,    352,    0.0,   13.7,   0.00,   0.00, 1025.1,   63.0, -999.0
10-07-2022, 00:04:37,    352,    0.0,   13.6,   0.00,   0.00, 1025.2,   62.9, -999.0
10-07-2022, 00:04:46,    352,    0.0,   13.7,   0.00,   0.00, 1025.1,   63.0, -999.0
10-07-2022, 00:04:56,    352,    0.0,   13.6,   0.00,   0.00, 1025.1,   63.1, -999.0
10-07-2022, 00:05:07,    352,    0.0,   13.7,   0.00,   0.00, 1025.2,   63.2, -999.0
10-07-2022, 00:05:16,    352,    0.0,   13.7,   0.00,   0.00, 1025.2,   63.1, -999.0
10-07-2022, 00:05:26,    352,    0.0,   13.6,   0.00,   0.00, 1025.2,   63.1, -999.0
10-07-2022, 00:05:36,    352,    0.0,   13.7,   0.00,   0.00, 1025.2,   63.1, -999.0
10-07-2022, 00:05:46,    352,    0.0,   13.7,   0.00,   0.00, 1025.1,   63.1, -999.0
10-07-2022, 00:05:56,    351,    0.0,   13.7,   0.00,   0.00, 1025.2,   63.0, -999.0
10-07-2022, 00:06:06,    352,    0.0,   13.7,   0.00,   0.00, 1025.2,   63.1, -999.0
10-07-2022, 00:06:16,    352,    0.0,   13.6,   0.00,   0.00, 1025.1,   63.1, -999.0
10-07-2022, 00:06:26,    352,    0.0,   13.6,   0.00,   0.00, 1025.2,   63.1, -999.0
10-07-2022, 00:06:36,    352,    0.0,   13.5,   0.00,   0.00, 1025.2,   63.1, -999.0
10-07-2022, 00:06:46,    351,    0.0,   13.6,   0.00,   0.00, 1025.2,   63.2, -999.0
10-07-2022, 00:06:55,    352,    0.0,   13.6,   0.00,   0.00, 1025.1,   63.2, -999.0
10-07-2022, 00:07:06,    352,    0.0,   13.5,   0.00,   0.00, 1025.2,   63.3, -999.0
10-07-2022, 00:07:16,    352,    0.0,   13.6,   0.00,   0.00, 1025.1,   63.3, -999.0
10-07-2022, 00:07:25,    352,    0.0,   13.6,   0.00,   0.00, 1025.1,   63.3, -999.0
10-07-2022, 00:07:36,    352,    0.0,   13.5,   0.00,   0.00, 1025.1,   63.3, -999.0
10-07-2022, 00:07:46,    352,    0.0,   13.6,   0.00,   0.00, 1025.1,   63.3, -999.0
10-07-2022, 00:07:55,    352,    0.0,   13.6,   0.00,   0.00, 1025.2,   63.4, -999.0
10-07-2022, 00:08:05,    352,    0.0,   13.6,   0.00,   0.00, 1025.2,   63.4, -999.0
10-07-2022, 00:08:16,    352,    0.0,   13.6,   0.00,   0.00, 1025.2,   63.4, -999.0
10-07-2022, 00:08:25,    352,    0.0,   13.6,   0.00,   0.00, 1025.1,   63.4, -999.0
10-07-2022, 00:08:35,    352,    0.0,   13.5,   0.00,   0.00, 1025.2,   63.5, -999.0
10-07-2022, 00:08:45,    352,    0.0,   13.5,   0.00,   0.00, 1025.2,   63.4, -999.0
10-07-2022, 00:08:55,    352,    0.0,   13.6,   0.00,   0.00, 1025.2,   63.3, -999.0
10-07-2022, 00:09:05,    352,    0.0,   13.5,   0.00,   0.00, 1025.2,   63.5, -999.0
10-07-2022, 00:09:15,    352,    0.0,   13.6,   0.00,   0.00, 1025.2,   63.4, -999.0
10-07-2022, 00:09:25,    352,    0.0,   13.6,   0.00,   0.00, 1025.2,   63.5, -999.0
10-07-2022, 00:09:35,    351,    0.0,   13.5,   0.00,   0.00, 1025.2,   63.5, -999.0
10-07-2022, 00:09:45,    352,    0.0,   13.6,   0.00,   0.00, 1025.2,   63.5, -999.0
10-07-2022, 00:09:55,    352,    0.0,   13.6,   0.00,   0.00, 1025.1,   63.6, -999.0
10-07-2022, 00:10:05,    352,    0.0,   13.7,   0.00,   0.00, 1025.2,   63.6, -999.0
10-07-2022, 00:10:15,    352,    0.0,   13.6,   0.00,   0.00, 1025.2,   63.7, -999.0
10-07-2022, 00:10:24,    352,    0.0,   13.6,   0.00,   0.00, 1025.2,   63.5, -999.0
10-07-2022, 00:10:34,    352,    0.0,   13.6,   0.00,   0.00, 1025.2,   63.5, -999.0
10-07-2022, 00:10:45,    352,    0.0,   13.7,   0.00,   0.00, 1025.2,   63.5, -999.0
10-07-2022, 00:10:54,    352,    0.0,   13.7,   0.00,   0.00, 1025.2,   63.4, -999.0
10-07-2022, 00:11:04,    352,    0.0,   13.6,   0.00,   0.00, 1025.1,   63.5, -999.0
10-07-2022, 00:11:14,    352,    0.0,   13.6,   0.00,   0.00, 1025.1,   63.6, -999.0
10-07-2022, 00:11:24,    352,    0.0,   13.7,   0.00,   0.00, 1025.1,   63.5, -999.0
10-07-2022, 00:11:34,    352,    0.0,   13.6,   0.00,   0.00, 1025.1,   63.4, -999.0
10-07-2022, 00:11:44,    352,    0.0,   13.7,   0.00,   0.00, 1025.1,   63.5, -999.0
10-07-2022, 00:11:54,    352,    0.0,   13.6,   0.00,   0.00, 1025.1,   63.5, -999.0
10-07-2022, 00:12:04,    352,    0.0,   13.5,   0.00,   0.00, 1025.2,   63.5, -999.0
10-07-2022, 00:12:14,    352,    0.0,   13.6,   0.00,   0.00, 1025.2,   63.4, -999.0
10-07-2022, 00:12:24,    351,    0.0,   13.6,   0.00,   0.00, 1025.2,   63.5, -999.0
10-07-2022, 00:12:34,    352,    0.0,   13.6,   0.00,   0.00, 1025.1,   63.4, -999.0
10-07-2022, 00:12:44,    352,    0.0,   13.6,   0.00,   0.00, 1025.1,   63.5, -999.0
10-07-2022, 00:12:54,    352,    0.0,   13.5,   0.00,   0.00, 1025.1,   63.6, -999.0
10-07-2022, 00:13:03,    352,    0.0,   13.5,   0.00,   0.00, 1025.2,   63.5, -999.0
10-07-2022, 00:13:14,    352,    0.0,   13.6,   0.00,   0.00, 1025.2,   63.5, -999.0
10-07-2022, 00:13:24,    352,    0.0,   13.5,   0.00,   0.00, 1025.2,   63.5, -999.0
10-07-2022, 00:13:33,    352,    0.0,   13.6,   0.00,   0.00, 1025.2,   63.5, -999.0
10-07-2022, 00:13:44,    351,    0.0,   13.5,   0.00,   0.00, 1025.2,   63.6, -999.0
10-07-2022, 00:13:53,    352,    0.0,   13.6,   0.00,   0.00, 1025.2,   63.5, -999.0
10-07-2022, 00:14:03,    352,    0.0,   13.6,   0.00,   0.00, 1025.2,   63.7, -999.0
10-07-2022, 00:14:13,    351,    0.0,   13.5,   0.00,   0.00, 1025.2,   63.5, -999.0
10-07-2022, 00:14:23,    352,    0.0,   13.6,   0.00,   0.00, 1025.2,   63.6, -999.0
10-07-2022, 00:14:33,    352,    0.0,   13.5,   0.00,   0.00, 1025.1,   63.6, -999.0
10-07-2022, 00:14:43,    352,    0.0,   13.5,   0.00,   0.00, 1025.2,   63.5, -999.0
10-07-2022, 00:14:53,    352,    0.0,   13.5,   0.00,   0.00, 1025.1,   63.6, -999.0
10-07-2022, 00:15:03,    352,    0.0,   13.5,   0.00,   0.00, 1025.1,   63.6, -999.0
10-07-2022, 00:15:13,    352,    0.0,   13.4,   0.00,   0.00, 1025.1,   63.5, -999.0
10-07-2022, 00:15:23,    352,    0.0,   13.5,   0.00,   0.00, 1025.1,   63.6, -999.0
10-07-2022, 00:15:33,    352,    0.0,   13.4,   0.00,   0.00, 1025.1,   63.5, -999.0
10-07-2022, 00:15:43,    352,    0.0,   13.3,   0.00,   0.00, 1025.1,   63.7, -999.0
10-07-2022, 00:15:53,    351,    0.0,   13.5,   0.00,   0.00, 1025.2,   63.7, -999.0
10-07-2022, 00:16:02,    352,    0.0,   13.3,   0.00,   0.00, 1025.1,   63.7, -999.0
10-07-2022, 00:16:13,    352,    0.0,   13.4,   0.00,   0.00, 1025.1,   63.7, -999.0
10-07-2022, 00:16:23,    352,    0.0,   13.3,   0.00,   0.00, 1025.1,   63.6, -999.0
10-07-2022, 00:16:32,    352,    0.0,   13.4,   0.00,   0.00, 1025.1,   63.8, -999.0
10-07-2022, 00:16:42,    352,    0.0,   13.4,   0.00,   0.00, 1025.1,   63.7, -999.0
10-07-2022, 00:16:53,    352,    0.0,   13.4,   0.00,   0.00, 1025.1,   63.7, -999.0
10-07-2022, 00:17:02,    352,    0.0,   13.2,   0.00,   0.00, 1025.1,   63.8, -999.0
10-07-2022, 00:17:12,    352,    0.0,   13.2,   0.00,   0.00, 1025.1,   63.7, -999.0
10-07-2022, 00:17:22,    352,    0.0,   13.3,   0.00,   0.00, 1025.1,   63.9, -999.0
10-07-2022, 00:17:32,    352,    0.0,   13.3,   0.00,   0.00, 1025.1,   63.9, -999.0
10-07-2022, 00:17:42,    352,    0.0,   13.3,   0.00,   0.00, 1025.1,   64.0, -999.0
10-07-2022, 00:17:52,    352,    0.0,   13.3,   0.00,   0.00, 1025.2,   63.9, -999.0
10-07-2022, 00:18:02,    352,    0.0,   13.3,   0.00,   0.00, 1025.1,   64.1, -999.0
10-07-2022, 00:18:12,    352,    0.0,   13.2,   0.00,   0.00, 1025.1,   64.0, -999.0
10-07-2022, 00:18:22,    352,    0.0,   13.2,   0.00,   0.00, 1025.1,   64.2, -999.0
10-07-2022, 00:18:32,    351,    0.0,   13.1,   0.00,   0.00, 1025.1,   64.2, -999.0
10-07-2022, 00:18:42,    352,    0.0,   13.2,   0.00,   0.00, 1025.1,   64.4, -999.0
10-07-2022, 00:18:52,    352,    0.0,   13.2,   0.00,   0.00, 1025.1,   64.4, -999.0
10-07-2022, 00:19:02,    352,    0.0,   13.2,   0.00,   0.00, 1025.1,   64.3, -999.0
10-07-2022, 00:19:11,    352,    0.0,   13.1,   0.00,   0.00, 1025.1,   64.3, -999.0
10-07-2022, 00:19:22,    352,    0.0,   13.1,   0.00,   0.00, 1025.1,   64.4, -999.0
10-07-2022, 00:19:31,    352,    0.0,   13.2,   0.00,   0.00, 1025.1,   64.6, -999.0
10-07-2022, 00:19:41,    346,    0.0,   13.2,   0.00,   0.00, 1025.1,   64.6, -999.0
10-07-2022, 00:19:51,    352,    0.0,   13.1,   0.00,   0.00, 1025.1,   64.7, -999.0
10-07-2022, 00:20:01,    352,    0.0,   13.1,   0.00,   0.00, 1025.1,   64.7, -999.0
10-07-2022, 00:20:11,    351,    0.0,   13.0,   0.00,   0.00, 1025.1,   64.7, -999.0
10-07-2022, 00:20:21,    352,    0.0,   13.1,   0.00,   0.00, 1025.1,   64.7, -999.0
10-07-2022, 00:20:31,    352,    0.0,   13.1,   0.00,   0.00, 1025.1,   64.9, -999.0
10-07-2022, 00:20:41,    352,    0.0,   13.1,   0.00,   0.00, 1025.1,   65.1, -999.0
10-07-2022, 00:20:51,    352,    0.0,   13.0,   0.00,   0.00, 1025.1,   65.1, -999.0
10-07-2022, 00:21:01,    352,    0.0,   13.0,   0.00,   0.00, 1025.1,   65.0, -999.0
10-07-2022, 00:21:11,    352,    0.0,   13.1,   0.00,   0.00, 1025.1,   65.1, -999.0
10-07-2022, 00:21:21,    352,    0.0,   13.0,   0.00,   0.00, 1025.1,   65.2, -999.0
10-07-2022, 00:21:31,    352,    0.0,   13.1,   0.00,   0.00, 1025.1,   65.3, -999.0
10-07-2022, 00:21:40,    352,    0.0,   13.1,   0.00,   0.00, 1025.1,   65.3, -999.0
10-07-2022, 00:21:51,    351,    0.0,   13.1,   0.00,   0.00, 1025.2,   65.2, -999.0
10-07-2022, 00:22:01,    352,    0.0,   13.1,   0.00,   0.00, 1025.2,   65.4, -999.0
10-07-2022, 00:22:10,    352,    0.0,   13.1,   0.00,   0.00, 1025.1,   65.2, -999.0
10-07-2022, 00:22:20,    351,    0.0,   13.1,   0.00,   0.00, 1025.1,   65.2, -999.0
10-07-2022, 00:22:31,    352,    0.0,   13.1,   0.00,   0.00, 1025.1,   65.1, -999.0
10-07-2022, 00:22:40,    352,    0.0,   13.1,   0.00,   0.00, 1025.1,   65.2, -999.0
10-07-2022, 00:22:50,    352,    0.0,   13.2,   0.00,   0.00, 1025.2,   65.3, -999.0
10-07-2022, 00:23:00,    352,    0.0,   13.1,   0.00,   0.00, 1025.1,   65.3, -999.0
10-07-2022, 00:23:10,    352,    0.0,   13.1,   0.00,   0.00, 1025.2,   65.3, -999.0
10-07-2022, 00:23:20,    352,    0.0,   13.1,   0.00,   0.00, 1025.1,   65.3, -999.0
10-07-2022, 00:23:30,    352,    0.0,   13.0,   0.00,   0.00, 1025.1,   65.2, -999.0
10-07-2022, 00:23:40,    352,    0.0,   13.0,   0.00,   0.00, 1025.1,   65.3, -999.0
10-07-2022, 00:23:50,    352,    0.0,   13.1,   0.00,   0.00, 1025.2,   65.3, -999.0
10-07-2022, 00:24:00,    352,    0.0,   13.1,   0.00,   0.00, 1025.2,   65.2, -999.0
10-07-2022, 00:24:10,    352,    0.0,   13.1,   0.00,   0.00, 1025.2,   65.2, -999.0
10-07-2022, 00:24:20,    352,    0.0,   13.0,   0.00,   0.00, 1025.2,   65.3, -999.0
10-07-2022, 00:24:30,    352,    0.0,   13.1,   0.00,   0.00, 1025.2,   65.4, -999.0
10-07-2022, 00:24:40,    352,    0.0,   13.0,   0.00,   0.00, 1025.2,   65.2, -999.0
10-07-2022, 00:24:49,    352,    0.0,   13.1,   0.00,   0.00, 1025.2,   65.4, -999.0
10-07-2022, 00:25:00,    352,    0.0,   12.9,   0.00,   0.00, 1025.2,   65.3, -999.0
10-07-2022, 00:25:09,    352,    0.0,   13.1,   0.00,   0.00, 1025.2,   65.4, -999.0
10-07-2022, 00:25:19,    352,    0.0,   13.1,   0.00,   0.00, 1025.2,   65.5, -999.0
10-07-2022, 00:25:30,    352,    0.0,   13.1,   0.00,   0.00, 1025.2,   65.5, -999.0
10-07-2022, 00:25:39,    352,    0.0,   13.0,   0.00,   0.00, 1025.2,   65.5, -999.0
10-07-2022, 00:25:49,    352,    0.0,   13.1,   0.00,   0.00, 1025.2,   65.4, -999.0
10-07-2022, 00:25:59,    352,    0.0,   13.0,   0.00,   0.00, 1025.2,   65.5, -999.0
10-07-2022, 00:26:09,    352,    0.0,   13.0,   0.00,   0.00, 1025.2,   65.5, -999.0
10-07-2022, 00:26:19,    352,    0.0,   13.0,   0.00,   0.00, 1025.2,   65.6, -999.0
10-07-2022, 00:26:29,    352,    0.0,   13.1,   0.00,   0.00, 1025.2,   65.5, -999.0
10-07-2022, 00:26:39,    352,    0.0,   13.0,   0.00,   0.00, 1025.2,   65.5, -999.0
10-07-2022, 00:26:49,    352,    0.0,   13.0,   0.00,   0.00, 1025.2,   65.5, -999.0
10-07-2022, 00:26:59,    352,    0.0,   13.0,   0.00,   0.00, 1025.2,   65.4, -999.0
10-07-2022, 00:27:09,    352,    0.0,   13.0,   0.00,   0.00, 1025.2,   65.4, -999.0
10-07-2022, 00:27:19,    352,    0.0,   13.0,   0.00,   0.00, 1025.2,   65.4, -999.0
10-07-2022, 00:27:29,    352,    0.0,   13.1,   0.00,   0.00, 1025.2,   65.6, -999.0
10-07-2022, 00:27:39,    352,    0.0,   13.1,   0.00,   0.00, 1025.2,   65.6, -999.0
10-07-2022, 00:27:48,    352,    0.0,   13.1,   0.00,   0.00, 1025.2,   65.6, -999.0
10-07-2022, 00:27:59,    352,    0.0,   13.1,   0.00,   0.00, 1025.2,   65.6, -999.0
10-07-2022, 00:28:09,    352,    0.0,   13.0,   0.00,   0.00, 1025.2,   65.5, -999.0
10-07-2022, 00:28:18,    352,    0.0,   13.1,   0.00,   0.00, 1025.2,   65.5, -999.0
10-07-2022, 00:28:28,    352,    0.0,   13.1,   0.00,   0.00, 1025.2,   65.5, -999.0
10-07-2022, 00:28:38,    352,    0.0,   13.1,   0.00,   0.00, 1025.2,   65.6, -999.0
10-07-2022, 00:28:48,    350,    0.0,   13.1,   0.00,   0.00, 1025.2,   65.6, -999.0
10-07-2022, 00:28:58,    352,    0.0,   13.0,   0.00,   0.00, 1025.2,   65.5, -999.0
10-07-2022, 00:29:08,    351,    0.0,   13.1,   0.00,   0.00, 1025.2,   65.5, -999.0
10-07-2022, 00:29:18,    352,    0.0,   13.1,   0.00,   0.00, 1025.2,   65.6, -999.0
10-07-2022, 00:29:28,    352,    0.0,   13.1,   0.00,   0.00, 1025.3,   65.6, -999.0
10-07-2022, 00:29:38,    352,    0.0,   13.1,   0.00,   0.00, 1025.2,   65.6, -999.0
10-07-2022, 00:29:48,    352,    0.0,   13.0,   0.00,   0.00, 1025.2,   65.6, -999.0
10-07-2022, 00:29:58,    351,    0.0,   13.0,   0.00,   0.00, 1025.2,   65.5, -999.0
10-07-2022, 00:30:08,    348,    0.0,   13.1,   0.00,   0.00, 1025.2,   65.5, -999.0
10-07-2022, 00:30:18,    352,    0.0,   13.1,   0.00,   0.00, 1025.2,   65.6, -999.0
10-07-2022, 00:30:28,    352,    0.0,   13.0,   0.00,   0.00, 1025.2,   65.7, -999.0
10-07-2022, 00:30:38,    352,    0.0,   13.1,   0.00,   0.00, 1025.2,   65.6, -999.0
10-07-2022, 00:30:47,    352,    0.0,   13.0,   0.00,   0.00, 1025.2,   65.7, -999.0
10-07-2022, 00:30:57,    352,    0.0,   13.0,   0.00,   0.00, 1025.2,   65.7, -999.0
10-07-2022, 00:31:08,    352,    0.0,   13.1,   0.00,   0.00, 1025.2,   65.7, -999.0
10-07-2022, 00:31:17,    352,    0.0,   13.1,   0.00,   0.00, 1025.2,   65.8, -999.0
10-07-2022, 00:31:27,    352,    0.0,   13.1,   0.00,   0.00, 1025.2,   65.8, -999.0
10-07-2022, 00:31:38,    352,    0.0,   13.1,   0.00,   0.00, 1025.2,   65.7, -999.0
10-07-2022, 00:31:47,    352,    0.0,   13.2,   0.00,   0.00, 1025.2,   65.7, -999.0
10-07-2022, 00:31:57,    352,    0.0,   13.2,   0.00,   0.00, 1025.2,   65.6, -999.0
10-07-2022, 00:32:07,    352,    0.0,   13.2,   0.00,   0.00, 1025.2,   65.6, -999.0
10-07-2022, 00:32:17,    352,    0.0,   13.2,   0.00,   0.00, 1025.2,   65.5, -999.0
10-07-2022, 00:32:27,    352,    0.0,   13.2,   0.00,   0.00, 1025.2,   65.5, -999.0
10-07-2022, 00:32:37,    352,    0.0,   13.2,   0.00,   0.00, 1025.2,   65.6, -999.0
10-07-2022, 00:32:47,    352,    0.0,   13.3,   0.00,   0.00, 1025.2,   65.7, -999.0
10-07-2022, 00:32:57,    352,    0.0,   13.3,   0.00,   0.00, 1025.2,   65.6, -999.0
10-07-2022, 00:33:07,    352,    0.0,   13.3,   0.00,   0.00, 1025.2,   65.4, -999.0
10-07-2022, 00:33:17,    352,    0.0,   13.3,   0.00,   0.00, 1025.2,   65.4, -999.0
10-07-2022, 00:33:27,    352,    0.0,   13.2,   0.00,   0.00, 1025.2,   65.4, -999.0
10-07-2022, 00:33:37,    352,    0.0,   13.3,   0.00,   0.00, 1025.1,   65.3, -999.0
10-07-2022, 00:33:47,    352,    0.0,   13.1,   0.00,   0.00, 1025.2,   65.3, -999.0
10-07-2022, 00:33:56,    351,    0.0,   13.2,   0.00,   0.00, 1025.2,   65.3, -999.0
10-07-2022, 00:34:07,    351,    0.0,   13.3,   0.00,   0.00, 1025.2,   65.5, -999.0
10-07-2022, 00:34:16,    352,    0.0,   13.2,   0.00,   0.00, 1025.2,   65.6, -999.0
10-07-2022, 00:34:26,    352,    0.0,   13.2,   0.00,   0.00, 1025.2,   65.7, -999.0
10-07-2022, 00:34:36,    352,    0.0,   13.3,   0.00,   0.00, 1025.3,   65.7, -999.0
10-07-2022, 00:34:46,    352,    0.0,   13.3,   0.00,   0.00, 1025.2,   65.3, -999.0
10-07-2022, 00:34:56,    352,    0.0,   13.3,   0.00,   0.00, 1025.2,   65.3, -999.0
10-07-2022, 00:35:06,    352,    0.0,   13.3,   0.00,   0.00, 1025.2,   65.3, -999.0
10-07-2022, 00:35:16,    352,    0.0,   13.4,   0.00,   0.00, 1025.2,   65.3, -999.0
10-07-2022, 00:35:26,    352,    0.0,   13.3,   0.00,   0.00, 1025.2,   65.3, -999.0
10-07-2022, 00:35:36,    352,    0.0,   13.2,   0.00,   0.00, 1025.2,   65.1, -999.0
10-07-2022, 00:35:46,    352,    0.0,   13.2,   0.00,   0.00, 1025.2,   65.4, -999.0
10-07-2022, 00:35:56,    352,    0.0,   13.3,   0.00,   0.00, 1025.2,   65.3, -999.0
10-07-2022, 00:36:06,    352,    0.0,   13.3,   0.00,   0.00, 1025.2,   65.4, -999.0
10-07-2022, 00:36:16,    352,    0.0,   13.2,   0.00,   0.00, 1025.2,   65.4, -999.0
10-07-2022, 00:36:25,    352,    0.0,   13.1,   0.00,   0.00, 1025.2,   65.4, -999.0
10-07-2022, 00:36:36,    352,    0.0,   13.3,   0.00,   0.00, 1025.2,   65.5, -999.0
10-07-2022, 00:36:46,    352,    0.0,   13.3,   0.00,   0.00, 1025.2,   65.6, -999.0
10-07-2022, 00:36:55,    352,    0.0,   13.2,   0.00,   0.00, 1025.2,   65.6, -999.0
10-07-2022, 00:37:05,    352,    0.0,   13.2,   0.00,   0.00, 1025.2,   65.5, -999.0
10-07-2022, 00:37:16,    352,    0.0,   13.2,   0.00,   0.00, 1025.2,   65.7, -999.0
10-07-2022, 00:37:25,    352,    0.0,   13.2,   0.00,   0.00, 1025.2,   65.5, -999.0
10-07-2022, 00:37:35,    352,    0.0,   13.2,   0.00,   0.00, 1025.1,   65.6, -999.0
10-07-2022, 00:37:45,    352,    0.0,   13.2,   0.00,   0.00, 1025.2,   65.7, -999.0
10-07-2022, 00:37:55,    352,    0.0,   13.2,   0.00,   0.00, 1025.1,   65.7, -999.0
10-07-2022, 00:38:05,    352,    0.0,   13.3,   0.00,   0.00, 1025.2,   65.7, -999.0
10-07-2022, 00:38:15,    352,    0.0,   13.3,   0.00,   0.00, 1025.2,   65.6, -999.0
10-07-2022, 00:38:25,    352,    0.0,   13.4,   0.00,   0.00, 1025.2,   65.7, -999.0
10-07-2022, 00:38:35,    350,    0.0,   13.4,   0.00,   0.00, 1025.2,   65.5, -999.0
10-07-2022, 00:38:45,    352,    0.0,   13.4,   0.00,   0.00, 1025.2,   65.5, -999.0
10-07-2022, 00:38:55,    352,    0.0,   13.3,   0.00,   0.00, 1025.1,   65.5, -999.0
10-07-2022, 00:39:05,    352,    0.0,   13.3,   0.00,   0.00, 1025.2,   65.5, -999.0
10-07-2022, 00:39:15,    352,    0.0,   13.2,   0.00,   0.00, 1025.2,   65.5, -999.0
10-07-2022, 00:39:25,    352,    0.0,   13.3,   0.00,   0.00, 1025.2,   65.5, -999.0
10-07-2022, 00:39:34,    352,    0.0,   13.3,   0.00,   0.00, 1025.2,   65.5, -999.0
10-07-2022, 00:39:45,    352,    0.0,   13.3,   0.00,   0.00, 1025.2,   65.6, -999.0
10-07-2022, 00:39:54,    352,    0.0,   13.2,   0.00,   0.00, 1025.2,   65.6, -999.0
10-07-2022, 00:40:04,    352,    0.0,   13.2,   0.00,   0.00, 1025.2,   65.7, -999.0
10-07-2022, 00:40:14,    352,    0.0,   13.2,   0.00,   0.00, 1025.2,   65.7, -999.0
10-07-2022, 00:40:24,    352,    0.0,   13.3,   0.00,   0.00, 1025.2,   65.6, -999.0
10-07-2022, 00:40:34,    352,    0.0,   13.3,   0.00,   0.00, 1025.2,   65.8, -999.0
10-07-2022, 00:40:44,    352,    0.0,   13.3,   0.00,   0.00, 1025.1,   65.6, -999.0
10-07-2022, 00:40:54,    352,    0.0,   13.3,   0.00,   0.00, 1025.2,   65.7, -999.0
10-07-2022, 00:41:04,    351,    0.0,   13.3,   0.00,   0.00, 1025.2,   65.8, -999.0
10-07-2022, 00:41:14,    352,    0.0,   13.3,   0.00,   0.00, 1025.1,   65.7, -999.0
10-07-2022, 00:41:24,    352,    0.0,   13.2,   0.00,   0.00, 1025.2,   65.7, -999.0
10-07-2022, 00:41:34,    352,    0.0,   13.3,   0.00,   0.00, 1025.1,   65.9, -999.0
10-07-2022, 00:41:44,    352,    0.0,   13.3,   0.00,   0.00, 1025.2,   65.9, -999.0
10-07-2022, 00:41:54,    352,    0.0,   13.3,   0.00,   0.00, 1025.2,   65.9, -999.0
10-07-2022, 00:42:03,    352,    0.0,   13.2,   0.00,   0.00, 1025.1,   66.0, -999.0
10-07-2022, 00:42:14,    352,    0.0,   13.2,   0.00,   0.00, 1025.2,   66.0, -999.0
10-07-2022, 00:42:24,    352,    0.0,   13.3,   0.00,   0.00, 1025.2,   66.0, -999.0
10-07-2022, 00:42:33,    352,    0.0,   13.3,   0.00,   0.00, 1025.2,   66.1, -999.0
10-07-2022, 00:42:44,    351,    0.0,   13.2,   0.00,   0.00, 1025.2,   66.0, -999.0
10-07-2022, 00:42:53,    352,    0.0,   13.3,   0.00,   0.00, 1025.1,   66.0, -999.0
10-07-2022, 00:43:03,    352,    0.0,   13.3,   0.00,   0.00, 1025.1,   66.0, -999.0
10-07-2022, 00:43:13,    352,    0.0,   13.2,   0.00,   0.00, 1025.2,   66.0, -999.0
10-07-2022, 00:43:23,    352,    0.0,   13.2,   0.00,   0.00, 1025.2,   66.0, -999.0
10-07-2022, 00:43:33,    352,    0.0,   13.3,   0.00,   0.00, 1025.2,   66.2, -999.0
10-07-2022, 00:43:43,    352,    0.0,   13.3,   0.00,   0.00, 1025.2,   66.1, -999.0
10-07-2022, 00:43:53,    352,    0.0,   13.3,   0.00,   0.00, 1025.2,   66.3, -999.0
10-07-2022, 00:44:03,    352,    0.0,   13.3,   0.00,   0.00, 1025.2,   66.3, -999.0
10-07-2022, 00:44:13,    352,    0.0,   13.2,   0.00,   0.00, 1025.1,   66.3, -999.0
10-07-2022, 00:44:23,    352,    0.0,   13.2,   0.00,   0.00, 1025.1,   66.4, -999.0
10-07-2022, 00:44:33,    352,    0.0,   13.3,   0.00,   0.00, 1025.1,   66.4, -999.0
10-07-2022, 00:44:43,    352,    0.0,   13.3,   0.00,   0.00, 1025.1,   66.5, -999.0
10-07-2022, 00:44:53,    352,    0.0,   13.3,   0.00,   0.00, 1025.1,   66.4, -999.0
10-07-2022, 00:45:03,    351,    0.0,   13.4,   0.00,   0.00, 1025.2,   66.3, -999.0
10-07-2022, 00:45:13,    351,    0.0,   13.4,   0.00,   0.00, 1025.1,   66.3, -999.0
10-07-2022, 00:45:23,    352,    0.0,   13.3,   0.00,   0.00, 1025.2,   66.3, -999.0
10-07-2022, 00:45:32,    352,    0.0,   13.3,   0.00,   0.00, 1025.1,   66.3, -999.0
10-07-2022, 00:45:42,    352,    0.0,   13.3,   0.00,   0.00, 1025.1,   66.3, -999.0
10-07-2022, 00:45:53,    352,    0.0,   13.3,   0.00,   0.00, 1025.1,   66.4, -999.0
10-07-2022, 00:46:02,    351,    0.0,   13.3,   0.00,   0.00, 1025.2,   66.6, -999.0
10-07-2022, 00:46:12,    352,    0.0,   13.3,   0.00,   0.00, 1025.1,   66.5, -999.0
10-07-2022, 00:46:22,    352,    0.0,   13.3,   0.00,   0.00, 1025.1,   66.5, -999.0
10-07-2022, 00:46:32,    352,    0.0,   13.3,   0.00,   0.00, 1025.1,   66.5, -999.0
10-07-2022, 00:46:42,    352,    0.0,   13.3,   0.00,   0.00, 1025.1,   66.5, -999.0